Kansas Department of Transportation
RWIS(Road and Runway Information System) Map and Weather Data





Station
Surface
Air
Wind
Site IDSensor TypeLocationTemperature (°F)Temperature (°F)Humidity (%)Speed (mi/h)Gusts (mi/h)DirectionTime
123002AtmosphericBonner Springs 458312NNWDec 13 2018 9:25AM
123002ApproachBonner Springs46     Dec 13 2018 9:25AM
123002DeckBonner Springs48     Dec 13 2018 9:25AM
123014AtmosphericBull Creek 469011NDec 13 2018 9:25AM
123014DeckBull Creek48     Dec 13 2018 9:25AM
123014DepartureBull Creek48     Dec 13 2018 9:25AM
123015AtmosphericLeavenworth 418927NNEDec 13 2018 9:25AM
123015DeckLeavenworthUnavailable     Dec 13 2018 9:25AM
123015DepartureLeavenworth43     Dec 13 2018 9:25AM
123020RoadwayMayettaUnavailable     Dec 13 2018 9:25AM
123020DeckMayettaUnavailable     Dec 13 2018 9:25AM
505000AtmosphericKTA 1 39691116NDec 13 2018 9:20AM
505000ApproachKTA 143     Dec 13 2018 9:20AM
505000DeckKTA 143     Dec 13 2018 9:20AM
505001AtmosphericKTA 2 39741116NDec 13 2018 9:20AM
505001ApproachKTA 245     Dec 13 2018 9:20AM
505001DeckKTA 245     Dec 13 2018 9:20AM
505002AtmosphericKTA 3 3986712NNWDec 13 2018 9:20AM
505002ApproachKTA 343     Dec 13 2018 9:20AM
505002DeckKTA 343     Dec 13 2018 9:20AM
505003AtmosphericKTA 4 37691120NDec 13 2018 9:20AM
505003ApproachKTA 443     Dec 13 2018 9:20AM
505003DeckKTA 441     Dec 13 2018 9:20AM
505004AtmosphericKTA 5 37991113NDec 13 2018 9:20AM
505004RoadwayKTA 5Unavailable     Dec 13 2018 9:20AM
505004RoadwayKTA 5Unavailable     Dec 13 2018 9:20AM
505005AtmosphericKTA 6 417569NWDec 13 2018 9:20AM
505005Approach KTA 645     Dec 13 2018 9:20AM
505005DeckKTA 643     Dec 13 2018 9:20AM
505006AtmosphericKTA 7 419467NWDec 13 2018 9:20AM
505006ApproachKTA 7Unavailable     Dec 13 2018 9:20AM
505006DeckKTA 7Unavailable     Dec 13 2018 9:20AM
505007AtmosphericKTA 8 439946NDec 13 2018 9:20AM
505007ApproachKTA 846     Dec 13 2018 9:20AM
505007DeckKTA 846     Dec 13 2018 9:20AM
505008AtmosphericKTA 9 459301NEDec 13 2018 9:20AM
505008ApproachKTA 945     Dec 13 2018 9:20AM
505008DeckKTA 945     Dec 13 2018 9:20AM
505009AtmosphericKTA 10 556800NDec 13 2018 9:20AM
505009ApproachKTA 1046     Dec 13 2018 9:20AM
505009DeckKTA 1045     Dec 13 2018 9:20AM
505010AtmosphericWebb 39841420WNWDec 13 2018 9:25AM
505010DeckWebb43     Dec 13 2018 9:25AM
505010NullWebb43     Dec 13 2018 9:25AM
505014AtmosphericI-135 39731420NDec 13 2018 9:20AM
505014ApproachI-13545     Dec 13 2018 9:25AM
505014DeckI-135Unavailable     Dec 13 2018 9:25AM
540000AtmosphericBlue Rapids 377248NNEDec 13 2018 9:25AM
540000DeckBlue Rapids34     Dec 13 2018 9:25AM
540000DepartureBlue Rapids37     Dec 13 2018 9:25AM
540001AtmosphericSabetha 3481411NNWDec 13 2018 9:25AM
540001ApproachSabetha37     Dec 13 2018 9:25AM
540001DeckSabetha37     Dec 13 2018 9:25AM
540002AtmosphericWestgate 418168NWDec 13 2018 9:25AM
540002DeckWestgate45     Dec 13 2018 9:25AM
540002DepartureWestgate45     Dec 13 2018 9:25AM
540003AtmosphericEmporia 417449NDec 13 2018 9:25AM
540003ApproachEmporia46     Dec 13 2018 9:25AM
540003DeckEmporia46     Dec 13 2018 9:25AM
540005AtmosphericLawrence 458614NNWDec 13 2018 9:25AM
540005ApproachLawrenceUnavailable     Dec 13 2018 9:25AM
540005DeckLawrenceUnavailable     Dec 13 2018 9:25AM
540006AtmosphericTroy 37991 NWDec 13 2018 9:25AM
540006DeckTroy39     Dec 13 2018 9:25AM
540006DepartureTroyUnavailable     Dec 13 2018 9:25AM
540007AtmosphericManhattan 366927NWDec 13 2018 9:25AM
540007DepartureManhattan39     Dec 13 2018 9:25AM
540007DeckManhattan41     Dec 13 2018 9:25AM
541000AtmosphericElkhart 36511524NWDec 13 2018 9:25AM
541000ApproachElkhart36     Dec 13 2018 9:25AM
541000DeckElkhart36     Dec 13 2018 9:25AM
541000DeckElkhart36     Dec 13 2018 9:25AM
541001AtmosphericSyracuse 36511421NDec 13 2018 9:25AM
541001Out of Service for WinterSyracuse36     Dec 13 2018 9:25AM
541001DeckSyracuse36     Dec 13 2018 9:25AM
541002AtmosphericLiberal 39531624NNWDec 13 2018 9:25AM
541002ApproachLiberalUnavailable     Dec 13 2018 9:25AM
541002DeckLiberalUnavailable     Dec 13 2018 9:25AM
541003AtmosphericFord 39711521NDec 13 2018 9:25AM
541003DeckFord39     Dec 13 2018 9:25AM
541003DepartureFord39     Dec 13 2018 9:25AM
541004AtmosphericScott 375400NDec 13 2018 9:25AM
541004DepartureScottUnavailable     Dec 13 2018 9:25AM
541005AtmosphericNess 39701624NDec 13 2018 9:25AM
541005DeckNess39     Dec 13 2018 9:25AM
541005DepartureNess39     Dec 13 2018 9:25AM
541007AtmosphericGarden City 306900NDec 13 2018 8:50AM
541007ApproachGarden City46     Dec 13 2018 8:50AM
543000AtmosphericJunction City 368326NNEDec 13 2018 9:25AM
543000ApproachJunction City41     Dec 13 2018 9:25AM
543000DeckJunction City39     Dec 13 2018 9:25AM
543002AtmosphericMcPherson 39881214NDec 13 2018 9:25AM
543002ApproachMcPherson39     Dec 13 2018 9:25AM
543002DeckMcPherson39     Dec 13 2018 9:25AM
543003AtmosphericSalina 39741116NEDec 13 2018 9:25AM
543003DepartureSalina39     Dec 13 2018 9:25AM
543003RoadwaySalinaUnavailable     Dec 13 2018 9:25AM
543004AtmosphericConcordia 39801219NNWDec 13 2018 9:25AM
543004ApproachConcordiaUnavailable     Dec 13 2018 9:25AM
543004DeckConcordia37     Dec 13 2018 9:25AM
543005AtmosphericPeabody 34841017NDec 13 2018 9:25AM
543005ApproachPeabody41     Dec 13 2018 9:25AM
543005DeckPeabodyUnavailable     Dec 13 2018 9:25AM
560000AtmosphericEdson 45441319NDec 13 2018 9:25AM
560000RoadwayEdson34     Dec 13 2018 9:25AM
560000RoadwayEdson34     Dec 13 2018 9:25AM
560001AtmosphericOakley 36641724NWDec 13 2018 9:25AM
560001ApproachOakley36     Dec 13 2018 9:25AM
560001DeckOakley37     Dec 13 2018 9:25AM
560002AtmosphericAtwood 3665915NWDec 13 2018 9:25AM
560002ApproachAtwood34     Dec 13 2018 9:25AM
560002DeckAtwood32     Dec 13 2018 9:25AM
560003AtmosphericJennings 36751116NDec 13 2018 9:25AM
560003ApproachJennings32     Dec 13 2018 9:25AM
560003DeckJennings32     Dec 13 2018 9:25AM
560003DeckJennings32     Dec 13 2018 9:25AM
560004AtmosphericWakeeney 37741219NDec 13 2018 9:25AM
560004ApproachWakeeney39     Dec 13 2018 9:25AM
560004DeckWakeeney39     Dec 13 2018 9:25AM
560005AtmosphericWalker 39721021NNWDec 13 2018 9:25AM
560005ApproachWalkerUnavailable     Dec 13 2018 9:25AM
560005DeckWalkerUnavailable     Dec 13 2018 9:25AM
560006AtmosphericBow Creek(Stockton) 36761420NDec 13 2018 9:25AM
560006ApproachBow Creek(Stockton)39     Dec 13 2018 9:25AM
560006DeckBow Creek(Stockton)37     Dec 13 2018 9:25AM
560007AtmosphericLebanon 39791217NNWDec 13 2018 9:25AM
560007ApproachLebanon37     Dec 13 2018 9:25AM
560007DeckLebanon37     Dec 13 2018 9:25AM
560008AtmosphericWallace 3455916NDec 13 2018 9:25AM
560008ApproachWallace34     Dec 13 2018 9:25AM
560008DeckWallace36     Dec 13 2018 9:25AM
572000AtmosphericGreat Bend 39791420NDec 13 2018 9:25AM
572000ApproachGreat Bend41     Dec 13 2018 9:25AM
572000DeckGreat Bend39     Dec 13 2018 9:25AM
572001AtmosphericPratt 4159614NDec 13 2018 9:25AM
572001ApproachPratt43     Dec 13 2018 9:25AM
572001DeckPratt43     Dec 13 2018 9:25AM
572002AtmosphericAnthony 43741122NDec 13 2018 9:25AM
572002ApproachAnthony45     Dec 13 2018 9:25AM
572002DeckAnthonyUnavailable     Dec 13 2018 9:25AM
573000AtmosphericEureka 3976915NNWDec 13 2018 9:25AM
573000DeckEureka39     Dec 13 2018 9:25AM
573000DepartureEureka43     Dec 13 2018 9:25AM
573001AtmosphericGarnett 468922NNWDec 13 2018 9:25AM
573001ApproachGarnett46     Dec 13 2018 9:25AM
573001DeckGarnett48     Dec 13 2018 9:25AM
573002AtmosphericCaney 505435WNWDec 13 2018 9:25AM
573002RoadwayCaney52     Dec 13 2018 9:20AM
573003AtmosphericChetopa 529723NDec 13 2018 9:25AM
573003DeckChetopa54     Dec 13 2018 9:25AM
573003DeckChetopa54     Dec 13 2018 9:25AM
573003DepartureChetopa54     Dec 13 2018 9:25AM
573004AtmosphericChanute 489967NDec 13 2018 9:25AM
573004ApproachChanute50     Dec 13 2018 9:25AM
573004DeckChanute50     Dec 13 2018 9:25AM